Location: Fatehalanka
(16.3139°N, 80.8379°E)
Time: 05:43:41
(UTC+00:00)

Resurs 01 Rocket - Pass Details

Date: 14 May 2026
Orbit: 627 x 635 km, 97.7° (Epoch: 6 June)

Event Time Altitude Azimuth Distance (km) Brightness Sun altitude
Rises 14:07:38 0° 183° (S) 2,900 4.8 -15.9°
Reaches altitude 10° 14:09:56 10° 191° (S) 1,994 4.0 -16.4°
Maximum altitude 14:13:59 39° 260° (W) 935 2.9 -17.3°
Drops below altitude 10° 14:18:04 10° 330° (NNW) 1,998 5.0 -18.2°
Sets 14:20:22 0° 337° (NNW) 2,906 5.8 -18.7°
